Tracking 29090 objects as of 15-Jul-2024
HD Live streaming from Space Station
objects crossing your sky now

SL-8 DEB

Track SL-8 DEB now!
10-day predictions


NORAD ID: 22025
Int'l Code: 1991-009CJ
Perigee: 1,435.7 km
Apogee: 1,663.5 km
Inclination: 73.9 °
Period: 116.9 minutes
Semi major axis: 7920 km
RCS: 0.0299 m2 (small)
Launch date: February 12, 1991
Source: Commonwealth of Independent States (former USSR) (CIS)
Launch site: PLESETSK MISSILE AND SPACE COMPLEX (PKMTR)

Note: This is SATELLITE DEBRIS
Your satellite tracking list
Your tracking list is empty




NASA's NSSDC Master Catalog

Two Line Element Set (TLE):
1 22025U 91009CJ  24196.52520064  .00000025  00000-0  33596-3 0  9992
2 22025  73.9404 289.3601 0143794 301.6827  70.4816 12.31589195498836
Source of the keplerian elements: AFSPC